User: anonymous   Login
Location: Unspecified
(0.0000°N, 0.0000°E)
Time: 03:01:52
(UTC+00:00)
Language:

USA 187 - Orbit

View from above orbital plane
View from above orbital plane
View from above satellite
View from above satellite

Ground track
Ground track

The orbit data is extracted from the following two-line orbital elements,

1 29240U 06024A   18070.29346641 0.00000000  00000-0  00000-0 0    03
2 29240   1.3374  79.0396 0015471 190.8620 169.1169  0.98611896    06
Epoch (UTC): 11 March 2018 07:02:35
Eccentricity: 0.0015471
inclination: 1.3374°
perigee height: 36192 km
apogee height: 36324 km
right ascension of ascending node: 79.0396°
argument of perigee: 190.8620°
revolutions per day: 0.98611896
mean anomaly at epoch: 169.1169°
orbit number at epoch: 0

The dashed part of the orbit path shows where the satellite is in the earth's shadow,  

DLR